Location: Allie Creek
(37.5926°N, 89.8526°W)
Time: 14:54:22
(UTC+00:00)

SL-16 R/B - Pass Details

Date: 02 May 2024
Orbit: 841 x 845 km, 71.0° (Epoch: 25 May)

Event Time Altitude Azimuth Distance (km) Brightness Sun altitude
Rises 02:50:44 0° 212° (SSW) 3,384 5.2 -21.3°
Reaches altitude 10° 02:53:13 10° 216° (SW) 2,454 4.5 -21.7°
Maximum altitude 02:58:45 58° 295° (WNW) 976 2.7 -22.5°
Drops below altitude 10° 03:04:21 10° 14° (NNE) 2,471 5.0 -23.3°
Sets 03:06:51 0° 19° (NNE) 3,410 5.7 -23.6°
